Showing default

YAOGAN-30 D, 43028

Orbit data source: Space-Track

YAOGAN-30 D, 43028 is a payload satellite owned by PLA SSF (CN) in LEO that was launched on Fri, 24 Nov 2017 UTC via a CHANG ZHENG 2C launch vehicle from the Xichang Space Center, China (XSC). Payload-class satellites include a variety of spacecraft equipped with specific instruments for various scientific and technological missions. These include communications satellites like Starlink; space stations such as the ISS; scientific satellites like the Hubble; Earth observation satellites from companies like Planet Labs, Umbra, and HawkEye 360; GPS; miniature CubeSats for education and research; and military/defense satellites.

Loading next visibility...
Identifier
43028, 2017-075A
Orbit
LEO
Last TLE update
2 hours ago
Origin
Manufacturer
SECM
Mission
Operational Defense Sigint
Bus & Motor
Unknown
Mass
~500 kg wet, ~500 kg dry
Launch date (UTC)
2017-11-24 (7 years ago)
Launch vehicle
CHANG ZHENG 2C
Launch site
Xichang Space Center, China (XSC)
Object type
Payload
Rocket body
Debris
Shape & HBR
Box + 2 Pan, 1 m
Radar Cross Section
0.446 m², Large (>1 m²)

Expand to show TLE details & history

TLE from 2 hours ago
0 YAOGAN-30 D
1 43028U 17075A   25129.22507651  .00003537  00000-0  28207-3 0  9994
2 43028  34.9938 207.4633 0002063 359.0783   0.9920 14.99848861406688
Epoch: 2025-05-09T05:24Z
Definitive object data (Epoch: 2025-05-09T05:24:06.61Z)
Latitude
-0.00003°
Longitude
-100.84856°
Altitude
564.848 km
Speed
7.582 km/s
True Right ascension
13h 49m 51s
True Declination
0° 00' 00"
Sunlit
Object was in full shadow at TLE epoch
Visualization TLE readout
Latitude
6.41006°
Longitude
-92.08096°
Altitude
564.271 km
Speed
7.583 km/s
Apparent Right ascension
12h 43m 30s
Apparent Declination
-54° 48' 47"
Sunlit
Object is in full shadow
Visualization observer readout
Local Sidereal Time
15:11:52
Azimuth
200.656° SSW
Elevation
-9.896°
Doppler factor
1
Orbital elements
Apogee altitude
572.015 km
Perigee altitude
569.148 km
Semi-major axis
6,948.718 km
Eccentricity
0.0002063
Inclination
34.9938°
RAAN
207.4633°
Arg. of periapsis
359.0783°
True anomaly
0.99241°
Mean anomaly
0.992°
Eccentric anomaly
0.9922°
Mean motion
3.74702 °/min
BSTAR
0.00028207
Orbital period
96.08 mins
Loading maneuver chart data...
Loading SW <> Apogee altitude chart data...
Loading historical data...
Loading historical data...
Loading historical data...
Loading historical data...
Loading historical data...
Loading historical data...
Loading historical data...
Other satellites on launch #75 in the year 2017 (2017-11-24 UTC)

YAOGAN-30 D Visibility forecast

Observer location: undefined°, undefined°

Span
Click to sort rows by Start time (UTC) header in descending order
Start Az.
Max El. time (UTC)
Max El. Az.
Max El.
End time (UTC)
End Az.
5 mins2025-05-09 08:48:56.118Z195.724° SSW2025-05-09 08:51:56.118Z148.675° SSE16.719°2025-05-09 08:53:56.118Z118.481° SE
6 mins2025-05-09 10:29:56.118Z227.299° WSW2025-05-09 10:31:56.118Z187.246° SSW30.256°2025-05-09 10:35:56.118Z105.518° ESE
6 mins2025-05-09 12:10:56.118Z246.372° WSW2025-05-09 12:13:56.118Z170.579° S32.188°2025-05-09 12:16:56.118Z119.603° SE
4 mins2025-05-09 13:52:56.118Z230.857° WSW2025-05-09 13:54:56.118Z191.649° SSW20.082°2025-05-09 13:56:56.118Z158.837° S
|